Regional Weather Roundup
Issued by NWS

Home | Current Version | Previous Version | Text Only | Print | Product List | Glossary Off
Versions: 1 2 3 4 5 6 7 8 9 10 11 12 13 14 15 16 17 18 19 20 21 22 23 24 25 26 27 28 29 30 31 32 33 34 35 36 37 38 39 40 41 42 43 44 45 46 47 48 49 50

000
ASUS43 KDTX 300510
RWRMI
MICHIGAN HOURLY REGIONAL WEATHER ROUNDUP
NATIONAL WEATHER SERVICE DETROIT/PONTIAC MI
100 AM EDT TUE MAY 30 2017

NOTE: "FAIR" INDICATES FEW OR NO CLOUDS BELOW 12,000 FEET WITH NO
SIGNIFICANT WEATHER AND/OR OBSTRUCTION TO VISIBILITY.

MIZ047>049-052>055-059>063-066>070-074>076-081>083-300600-
SOUTHEAST LOWER MICHIGAN

CITY           SKY/WX    TMP DP  RH WIND       PRES   REMARKS
ADRIAN         CLOUDY    57  54  89 CALM      29.91R
ALMA           CLEAR     56  47  71 SW3       29.85S
ANN ARBOR      MOCLDY    52  50  93 CALM      29.89R
BAD AXE        CLEAR     56  46  69 SW5       29.84R
CARO           CLEAR     53  46  76 SW3       29.84R
DETROIT CITY   CLOUDY    62  54  74 SW5       29.88R
DETROIT        MOCLDY    59  56  89 S6        29.90R
FLINT          CLEAR     59  44  57 S6        29.86R
GROSSE ILE     CLOUDY    61  54  76 CALM      29.88S
HILLSDALE      PTCLDY    52  46  82 SW3       29.90R
HOWELL         CLEAR     57  44  61 S3        29.87S

CITY           SKY/WX    TMP DP  RH WIND       PRES   REMARKS
JACKSON        CLEAR     55  47  74 SW5       29.89R
LAMBERTVILLE   CLOUDY    60  54  79 CALM      29.90S
LANSING        CLEAR     60  44  55 W9        29.88R
LAPEER         FAIR      55  46  70 SW6       29.86S
MASON          CLEAR     58  47  65 CALM      29.88R
MONROE         CLOUDY    59  54  83 CALM      29.89S
MT. CLEMENS    MOCLDY    63  54  72 SW3       29.86R
PONTIAC        PTCLDY    58  49  72 W3        29.87R
PORT HOPE        N/A     58  47  66 S5        29.81R
PORT HURON     MOCLDY    57  52  82 CALM      29.87R
TRI CITIES     CLEAR     58  48  69 SW7       29.84R
MIDLAND        FAIR      58  45  62 W6        29.82S
TROY           PTCLDY    65  49  57 S3        29.90R
SAGINAW HB     CLEAR     59  43  55 SW5       29.83S
$$
MIZ043>046-050>051-056>058-064>065-071>073-077>080-300600-
SOUTHWEST LOWER MICHIGAN

CITY           SKY/WX    TMP DP  RH WIND       PRES   REMARKS
BATTLE CREEK   CLEAR     54  47  77 W7        29.89R
BENTON HARBOR  CLEAR     51  47  86 CALM      29.89R
BIG RAPIDS     CLEAR     52  44  76 SW5       29.82S
COLDWATER      CLEAR     54  49  85 CALM      29.90R
FREMONT        FAIR      53  46  78 SW6       29.83S
HOLLAND        PTCLDY    50  46  86 S3        29.87F
GRAND RAPIDS   CLEAR     56  48  74 SW7       29.86S
IONIA          FAIR      56  46  68 W6        29.86R
KALAMAZOO      CLEAR     55  45  68 SW3       29.89R
LUDINGTON      CLEAR     52  48  86 W7        29.80F
MARSHALL       CLEAR     56  46  69 CALM      29.89R
MOUNT PLEASANT CLEAR     58  45  62 W5        29.82S
MUSKEGON       CLEAR     56  48  74 W7        29.85S
SOUTH HAVEN    CLEAR     52  50  91 CALM      29.88S
$$
MIZ016>042-300600-
NORTHERN LOWER MICHIGAN

CITY           SKY/WX    TMP DP  RH WIND       PRES   REMARKS
ALPENA         CLEAR     50  47  89 S3        29.76S
BEAVER ISLAND  CLOUDY    50  46  88 SW13      29.73S
BELLAIRE       CLEAR     56  46  68 SW3       29.76F
CADILLAC       CLEAR     52  48  84 SW7       29.80S
CHARLEVOIX     MOCLDY    55  47  73 SW8       29.77F
FRANKFORT      PTCLDY    54  46  73 SW8       29.78F
GAYLORD        CLEAR     54  44  69 SW10      29.76F
GRAYLING       PTCLDY    55  45  69 W5        29.78F
HARBOR SPRINGS MOCLDY    54  48  80 CALM      29.74F
HOUGHTON LAKE  MOCLDY    58  46  64 SW8       29.80S
MANISTEE       CLEAR     56  47  71 W8        29.79F
OSCODA         CLEAR     55  44  67 CALM      29.79R
PELLSTON       MOCLDY    55  45  68 SW6       29.73F
ROGERS CITY    CLEAR     55  47  76 SW7       29.75S
TRAVERSE CITY  CLEAR     56  46  69 SW5       29.76F
$$
MIZ007>008-015-300600-
EASTERN UPPER MICHIGAN

CITY           SKY/WX    TMP DP  RH WIND       PRES   REMARKS
KINROSS        CLOUDY    50  47  89 S6        29.71F
MACKINAC ISLAN CLOUDY    53  48  83 SW9G17    29.72S
NEWBERRY       CLOUDY    49  49  97 SW8       29.69S
S. S. MARIE    CLOUDY    53  48  83 S8        29.70S
MUNISING         N/A     55  53  93 SW7       29.68S
$$
MIZ004>006-011>014-085-300600-
CENTRAL UPPER MICHIGAN

CITY           SKY/WX    TMP DP  RH WIND       PRES   REMARKS
MANISTIQUE     LGT RAIN  52  49  89 SW3       29.71R
ESCANABA       PTCLDY    53  50  89 W7        29.73S
SAWYER-GWINN   CLOUDY    54  47  80 W10       29.71S
$$
MIZ001>003-009>011-084-300600-
WESTERN UPPER MICHIGAN

CITY           SKY/WX    TMP DP  RH WIND       PRES   REMARKS
IRON MOUNTAIN  CLOUDY    53  48  83 W8        29.73S
HOUGHTON       CLOUDY    50  45  83 W15       29.68R
COPPER HARBOR    N/A     54  49  83 NW10G23   29.63S
IRONWOOD       CLOUDY    49  46  90 SW6       29.76S
$$

ABBREVIATIONS USED IN REMARKS
   TC - TEMPERATURE IN CELSIUS
  WCI - WIND CHILL INDEX
   HX - HEAT INDEX
  VSB - VISIBILITY





USA.gov is the U.S. government's official web portal to all federal, state and local government web resources and services.